Voltar ao catálogo

USA 568

AtivoMilitarVLEO
NORAD 66551·PAYLOAD·🇺🇸 United States

Lançado Jul 30, 2024 de Cape Canaveral Space Force Station

Loading…

Próximas Passagens (próximas 24 horas)

TLE

ObsoletoSource: Space-Track

Época: Dec 2, 2025, 16:00 UTC

1 66551U 25271AE  25336.66670139 -.01709685  00000-0 -74303-2 0  9994
2 66551  53.1571 236.7807 0000717 110.7411 313.9012 15.87051116  2624

Acompanhe USA 568 em tempo real com AllMySat

Download on the App Store